Hourly Weather Roundup
Issued by NWS Central Illinois

Home | Current Version | Previous Version | Text Only | Print | Product List | Glossary On
Versions: 1 2 3 4 5 6 7 8 9 10 11 12 13 14 15 16 17 18 19 20 21 22 23 24 25 26 27 28 29 30 31 32 33 34 35 36 37 38 39 40 41 42 43 44 45 46 47 48 49 50
000
NZUS43 KILX 041210
HWRILX

AREA WEATHER ROUNDUP
NATIONAL WEATHER SERVICE, LINCOLN IL
700 AM CDT WED MAY 04 2016


CITY           SKY/WX    TMP DP  RH WIND       PRES   REMARKS
BLOOMINGTON    MOSUNNY   49  49 100 NW10      29.72R
6HR MIN TEMP:  48; 6HR MAX TEMP:  55; 6HR PCP:  0.20;

CHAMPAIGN      MOSUNNY   50  50 100 NW8       29.69R
6HR MIN TEMP:  49; 6HR MAX TEMP:  54; 6HR PCP:  0.17;

DANVILLE       CLOUDY    49  48  96 W9        29.66R
6HR MIN TEMP:  49; 6HR MAX TEMP:  55; 6HR PCP:  0.11;

DECATUR        MOSUNNY   52  49  89 NW3       29.70R
6HR MIN TEMP:  50; 6HR MAX TEMP:  56; 6HR PCP:  0.14;

EFFINGHAM      DRIZZLE   51  51 100 S5        29.71F
FLORA          LGT RAIN  53  49  86 S6        29.72F
6HR MIN TEMP:  52; 6HR MAX TEMP:  55; 6HR PCP:  0.06;

GALESBURG      SUNNY     46  46  99 N9        29.76R
JACKSONVILLE   SUNNY     51  46  84 NW5       29.71R
6HR MIN TEMP:  48; 6HR MAX TEMP:  56; 6HR PCP:  0.03;

LACON          CLOUDY    46  46  97 N5        29.73R FOG
6HR MIN TEMP:  42; 6HR MAX TEMP:  58; 6HR PCP:  0.17;

LAWRENCEVILLE  LGT RAIN  51  48  89 SW6       29.74R
6HR MIN TEMP:  50; 6HR MAX TEMP:  53; 6HR PCP:  0.11;

LITCHFIELD     CLOUDY    52  46  79 W10       29.70R
$$


CITY           SKY/WX    TMP DP  RH WIND       PRES   REMARKS
LINCOLN        SUNNY     51  51 100 CALM      29.71R FOG
6HR MIN TEMP:  50; 6HR MAX TEMP:  58; 6HR PCP:  0.13;

MACOMB         SUNNY     47  47  99 N9        29.77R
MATTOON        CLOUDY    50  47  89 SW9       29.68F
6HR MIN TEMP:  50; 6HR MAX TEMP:  54; 6HR PCP:  0.16;

MT CARMEL AP   RAIN      52  46  82 SW6       29.74F
OLNEY-NOBLE AP RAIN      50  48  93 S6        29.72F
PARIS          CLOUDY    51  49  93 SW8       29.68R
6HR MIN TEMP:  50; 6HR MAX TEMP:  52; 6HR PCP:  0.12;

PEORIA         CLOUDY    48  46  93 N8        29.74R FOG
6HR MIN TEMP:  47; 6HR MAX TEMP:  57; 6HR PCP:  0.20;

PONTIAC        SUNNY     48  48  99 NW9       29.72R
RANTOUL        CLOUDY    52  50  93 NW9       29.69S
6HR MIN TEMP:  51; 6HR MAX TEMP:  55; 6HR PCP:  0.06;

ROBINSON       RAIN      49  48  96 S9        29.73F
6HR MIN TEMP:  49; 6HR MAX TEMP:  53; 6HR PCP:  0.12;

SPRINGFIELD    MOSUNNY   50  48  93 N8        29.71R
6HR MIN TEMP:  49; 6HR MAX TEMP:  58; 6HR PCP:  0.05;

TAYLORVILLE    MOSUNNY   50  48  92 CALM      29.70R
$$

...REGIONAL REPORTS...


CITY           SKY/WX    TMP DP  RH WIND       PRES   REMARKS
CHICAGO O`HARE MOSUNNY   46  40  79 N12       29.70R
KANKAKEE       CLOUDY    50  46  87 NW12G17   29.69R
MOLINE         SUNNY     49  45  86 N12       29.77R
MOUNT STERLING SUNNY     52  46  80 NW10      29.73R
MOUNT VERNON   CLOUDY    52  43  71 SW8       29.73F
PITTSFIELD     SUNNY     55  46  72 NW9       29.73R
QUINCY         SUNNY     53  45  74 NW13      29.74R
ROCKFORD       PTSUNNY   47  44  90 N10       29.77R
$$


CITY           SKY/WX    TMP DP  RH WIND       PRES   REMARKS
BURLINGTON     SUNNY     50  47  89 N10       29.77R
CEDAR RAPIDS   SUNNY     48  44  86 N17G23    29.83R
DES MOINES     CLEAR     50  36  58 N13       29.90R
KIRKSVILLE     CLEAR     53  40  61 N10       29.81R
OTTUMWA        CLEAR     50  43  77 N16       29.83R
ST LOUIS       CLOUDY    57  46  66 W13       29.72R
$$


CITY           SKY/WX    TMP DP  RH WIND       PRES   REMARKS
TERRE HAUTE    CLOUDY    50  48  93 S13       29.68F FOG
EVANSVILLE     CLOUDY    52  45  77 SW10      29.75F
INDIANAPOLIS   LGT RAIN  50  46  86 SW20G29   29.66F
LAFAYETTE      CLOUDY    50  48  93 W9        29.65R
MADISON        MOSUNNY   44  39  82 N13G23    29.78R
MILWAUKEE      PTSUNNY   46  38  73 NW18G24   29.72R
$$






USA.gov is the U.S. government's official web portal to all federal, state and local government web resources and services.